Satellite: FO-70
Catalog number: 37380
Epoch time:      12324.35497821
Element set:    0345
Inclination:      071.9737 deg
RA of node:       330.2673 deg
Eccentricity:    0.0016487
Arg of perigee:   023.0914 deg
Mean anomaly:     337.0959 deg
Mean motion:   14.77019282 rev/day
Decay rate:       9.12e-06 rev/day^2
Epoch rev:           05889
Checksum:              323

Satellite: ALMASAT-1
Catalog number: 38078
Epoch time:      12334.08416158
Element set:     776
Inclination:      069.4771 deg
RA of node:       302.0576 deg
Eccentricity:    0.0730165
Arg of perigee:   041.1824 deg
Mean anomaly:     324.1948 deg
Mean motion:   14.15848555 rev/day
Decay rate:     2.5302e-04 rev/day^2
Epoch rev:            4083
Checksum:              304

Satellite: XATCOBEO
Catalog number: 38082
Epoch time:      12334.06433067
Element set:     731
Inclination:      069.4822 deg
RA of node:       293.7849 deg
Eccentricity:    0.0668578
Arg of perigee:   036.5830 deg
Mean anomaly:     327.8339 deg
Mean motion:   14.32298863 rev/day
Decay rate:     6.9125e-04 rev/day^2
Epoch rev:            4105
Checksum:              333

/EX
SB KEPS @ AMSAT  $ORB12334.W
Orbital Elements  12334.WEATHER

HR AMSAT ORBITAL ELEMENTS FOR WEATHER SATELLITES
FROM WA5QGD FORT WORTH,TX November 29, 2012
BID: ORB12334.W
TO ALL RADIO AMATEURS BT

Satellite: NOAA-10
Catalog number: 16969
Epoch time:      12333.51839442
Element set:     150
Inclination:      098.5666 deg
RA of node:       359.5268 deg
Eccentricity:    0.0013087
Arg of perigee:   112.0317 deg
Mean anomaly:     248.2258 deg
Mean motion:   14.27599339 rev/day
Decay rate:       2.49e-06 rev/day^2
Epoch rev:           36331
Checksum:              322

Satellite: NOAA-11
Catalog number: 19531
Epoch time:      12333.26731613
Element set:     145
Inclination:      098.7257 deg
RA of node:       054.9121 deg
Eccentricity:    0.0011911
Arg of perigee:   113.3249 deg
Mean anomaly:     246.9163 deg
Mean motion:   14.14994024 rev/day
Decay rate:       1.57e-06 rev/day^2
Epoch rev:           24771
Checksum:              281

Satellite: NOAA-12
Catalog number: 21263
Epoch time:      12333.64236664
Element set:     625
Inclination:      098.7167 deg
RA of node:       354.4449 deg
Eccentricity:    0.0014753
Arg of perigee:   082.7852 deg
Mean anomaly:     277.5004 deg
Mean motion:   14.25533878 rev/day
Decay rate:       1.03e-06 rev/day^2
Epoch rev:           11998
Checksum:              315

Satellite: MET-3/5
Catalog number: 21655
Epoch time:      12334.15117235
Element set:     559
Inclination:      082.5574 deg
RA of node:       035.6375 deg
Eccentricity:    0.0012200
Arg of perigee:   268.4411 deg
Mean anomaly:     091.5314 deg
Mean motion:   13.17042099 rev/day
Decay rate:       -1.5e-07 rev/day^2
Epoch rev:            2360
Checksum:              263

Satellite: MET-2/21
Catalog number: 22782
Epoch time:      12333.37534072
Element set:     593
Inclination:      082.5477 deg
RA of node:       262.2309 deg
Eccentricity:    0.0024013
Arg of perigee:   054.2574 deg
Mean anomaly:     306.0811 deg
Mean motion:   13.83695068 rev/day
Decay rate:        9.2e-07 rev/day^2
Epoch rev:           97187
Checksum:              302

Satellite: OKEAN-4
Catalog number: 23317
Epoch time:      12333.55990633
Element set:      67
Inclination:      082.5411 deg
RA of node:       237.4915 deg
Eccentricity:    0.0021261
Arg of perigee:   163.7248 deg
Mean anomaly:     196.4658 deg
Mean motion:   14.84138090 rev/day
Decay rate:      1.013e-05 rev/day^2
Epoch rev:           97918
Checksum:              305

Satellite: NOAA-14
Catalog number: 23455
Epoch time:      12333.65068384
Element set:     107
Inclination:      098.8196 deg
RA of node:       055.0091 deg
Eccentricity:    0.0008833
Arg of perigee:   204.7575 deg
Mean anomaly:     155.3175 deg
Mean motion:   14.13883728 rev/day
Decay rate:        3.4e-07 rev/day^2
Epoch rev:           92403
Checksum:              305

Satellite: NOAA-15
Catalog number: 25338
Epoch time:      12333.48738664
Element set:     503
Inclination:      098.7057 deg
RA of node:       318.9884 deg
Eccentricity:    0.0010651
Arg of perigee:   356.2245 deg
Mean anomaly:     003.8845 deg
Mean motion:   14.25153260 rev/day
Decay rate:       2.75e-06 rev/day^2
Epoch rev:           75625
Checksum:              316

Satellite: RESURS
Catalog number: 25394
Epoch time:      12333.50626441
Element set:     243
Inclination:      098.3366 deg
RA of node:       313.2374 deg
Eccentricity:    0.0002223
Arg of perigee:   101.1065 deg
Mean anomaly:     259.0362 deg
Mean motion:   14.24311227 rev/day
Decay rate:        8.8e-07 rev/day^2
Epoch rev:           74779
Checksum:              267

Satellite: FENGYUN1
Catalog number: 25730
Epoch time:      12333.87591939
Element set:    0749
Inclination:      098.8575 deg
RA of node:       290.1288 deg
Eccentricity:    0.0020462
Arg of perigee:   253.6775 deg
Mean anomaly:     106.2133 deg
Mean motion:   14.09892050 rev/day
Decay rate:      1.817e-05 rev/day^2
Epoch rev:           69781
Checksum:              332

Satellite: OKEAN-0
Catalog number: 25860
Epoch time:      12333.91304801
Element set:    0806
Inclination:      097.9596 deg
RA of node:       293.4163 deg
Eccentricity:    0.0002000
Arg of perigee:   072.7350 deg
Mean anomaly:     287.4077 deg
Mean motion:   14.74411352 rev/day
Decay rate:       7.95e-06 rev/day^2
Epoch rev:           71884
Checksum:              298

Satellite: NOAA-16
Catalog number: 26536
Epoch time:      12333.34361569
Element set:     985
Inclination:      099.0736 deg
RA of node:       017.8315 deg
Eccentricity:    0.0010343
Arg of perigee:   345.8393 deg
Mean anomaly:     014.2513 deg
Mean motion:   14.12811296 rev/day
Decay rate:       1.25e-06 rev/day^2
Epoch rev:           62821
Checksum:              293

Satellite: NOAA-17
Catalog number: 27453
Epoch time:      12333.45744420
Element set:     926
Inclination:      098.3247 deg
RA of node:       352.0960 deg
Eccentricity:    0.0012356
Arg of perigee:   038.7017 deg
Mean anomaly:     321.5049 deg
Mean motion:   14.24515560 rev/day
Decay rate:       2.54e-06 rev/day^2
Epoch rev:           54214
Checksum:              283

Satellite: NOAA-18
Catalog number: 28654
Epoch time:      12333.49787552
Element set:     409
Inclination:      099.0695 deg
RA of node:       293.1449 deg
Eccentricity:    0.0015046
Arg of perigee:   054.1754 deg
Mean anomaly:     306.0804 deg
Mean motion:   14.11739014 rev/day
Decay rate:       1.70e-06 rev/day^2
Epoch rev:           38774
Checksum:              317

Satellite: NOAA-19
Catalog number: 33591
Epoch time:      12333.47178437
Element set:     594
Inclination:      098.8810 deg
RA of node:       271.3470 deg
Eccentricity:    0.0013321
Arg of perigee:   278.2573 deg
Mean anomaly:     081.7081 deg
Mean motion:   14.11425194 rev/day
Decay rate:       2.31e-06 rev/day^2
Epoch rev:           19618
Checksum:              302

/EX
SB KEPS @ AMSAT  $ORB12334.M
Orbital Elements  12334.MISC

HR AMSAT ORBITAL ELEMENTS FOR MANNED AND MISCELLANEOUS SATELLITES
FROM WA5QGD FORT WORTH,TX November 29, 2012
BID: ORB12334.M
TO ALL RADIO AMATEURS BT

Satellite: HUBBLE
Catalog number: 20580
Epoch time:      12333.89321936
Element set:    0130
Inclination:      028.4690 deg
RA of node:       145.2839 deg
Eccentricity:    0.0002854
Arg of perigee:   016.1162 deg
Mean anomaly:     343.9526 deg
Mean motion:   15.03090085 rev/day
Decay rate:      1.715e-05 rev/day^2
Epoch rev:           03953
Checksum:              274

Satellite: ISS
Catalog number: 25544
Epoch time:      12333.60875234
Element set:     732
Inclination:      051.6499 deg
RA of node:       024.7441 deg
Eccentricity:    0.0015766
Arg of perigee:   340.1845 deg
Mean anomaly:     155.9317 deg
Mean motion:   15.51837211 rev/day
Decay rate:     1.3656e-04 rev/day^2
Epoch rev:           80355
Checksum:              299

Satellite: CO-58
Catalog number: 28895
Epoch time:      12333.61850385
Element set:    0339
Inclination:      097.8892 deg
RA of node:       192.4617 deg
Eccentricity:    0.0017779
Arg of perigee:   357.3451 deg
Mean anomaly:     002.7668 deg
Mean motion:   14.60872063 rev/day
Decay rate:       7.31e-06 rev/day^2
Epoch rev:           37766
Checksum:              356

Satellite: FALCON
Catalog number: 30776
Epoch time:      12334.22338918
Element set:     494
Inclination:      035.4354 deg
RA of node:       347.8356 deg
Eccentricity:    0.0001630
Arg of perigee:   321.4610 deg
Mean anomaly:     038.5981 deg
Mean motion:   15.09013153 rev/day
Decay rate:      5.512e-05 rev/day^2
Epoch rev:           31518
Checksum:              277

Satellite: MAST
Catalog number: 31126
Epoch time:      12333.94137635
Element set:    0621
Inclination:      097.8742 deg
RA of node:       335.4238 deg
Eccentricity:    0.0093069
Arg of perigee:   317.8122 deg
Mean anomaly:     041.5945 deg
Mean motion:   14.54366314 rev/day
Decay rate:       8.78e-06 rev/day^2
Epoch rev:           29821
Checksum:              307

Satellite: CAPE1
Catalog number: 31130
Epoch time:      12333.49258281
Element set:    0629
Inclination:      097.8865 deg
RA of node:       331.3208 deg
Eccentricity:    0.0100779
Arg of perigee:   333.4667 deg
Mean anomaly:     026.1284 deg
Mean motion:   14.53210738 rev/day
Decay rate:      1.158e-05 rev/day^2
Epoch rev:           29763
Checksum:              303

Satellite: COMPASS
Catalog number: 32787
Epoch time:      12334.16126301
Element set:     476
Inclination:      097.7819 deg
RA of node:       031.7288 deg
Eccentricity:    0.0013977
Arg of perigee:   239.1753 deg
Mean anomaly:     120.8012 deg
Mean motion:   14.84730157 rev/day
Decay rate:      2.011e-05 rev/day^2
Epoch rev:           24828
Checksum:              294

